This demonstration page uses our WeatherBlox Daily Observations layout. Learn more.

Left ArrowRight Arrow

Hourly Observations for June 11, 2020

Temp ( °F °C ) Dew Point ( °F °C ) Humidity (%) Winds ( mph kmh ) Pressure ( in mb ) Visibility ( mi km ) Precip ( " mm )
12:53 am 00:53 Clear 51 10.6 43 6.1 74 74 N N/A 30.06 1018 10 16 N/A
1:53 am 01:53 Clear 50 10 43 6.1 77 77 SSW 9 15 30.06 1018 10 16 N/A
2:53 am 02:53 Clear 48 8.9 42 5.6 80 80 S 8 13 30.06 1018 10 16 N/A
3:53 am 03:53 Clear 48 8.9 42 5.6 80 80 SW 8 13 30.07 1018 10 16 N/A
4:53 am 04:53 Clear 46 7.8 41 5 83 83 WSW 7 11 30.08 1019 10 16 N/A
5:53 am 05:53 Sunny 45 7.2 41 5 86 86 SSW 7 11 30.09 1019 10 16 N/A
6:53 am 06:53 Sunny 50 10 44 6.7 80 80 WSW 6 9 30.09 1019 10 16 N/A
7:53 am 07:53 Sunny 57 13.9 46 7.8 67 67 SW 10 17 30.09 1019 10 16 N/A
8:53 am 08:53 Sunny 65 18.3 47 8.3 52 52 SW 15 24 30.07 1018 10 16 N/A
9:53 am 09:53 Sunny 71 21.7 45 7.2 39 39 SW 16 26 30.08 1019 10 16 N/A
10:53 am 10:53 Sunny 74 23.3 43 6.1 33 33 WSW 13 20 30.08 1019 10 16 N/A
11:53 am 11:53 Sunny 75 23.9 43 6.1 32 32 W 15 24 30.08 1019 10 16 N/A
12:53 pm 12:53 Sunny 79 26.1 37 2.8 22 22 W 16 26 30.07 1018 10 16 N/A
1:53 pm 13:53 Sunny 79 26.1 39 3.9 24 24 WSW 12 19 30.07 1018 10 16 N/A
2:53 pm 14:53 Sunny 80 26.7 40 4.4 24 24 WNW 10 17 30.07 1018 10 16 N/A
3:53 pm 15:53 Sunny 82 27.8 40 4.4 22 22 W 14 22 30.06 1018 10 16 N/A
4:53 pm 16:53 Sunny 82 27.8 40 4.4 22 22 VRB 6 9 30.06 1018 10 16 N/A
5:53 pm 17:53 Sunny 81 27.2 39 3.9 22 22 W 5 7 30.07 1018 10 16 N/A
6:53 pm 18:53 Sunny 79 26.1 41 5 26 26 NNE 6 9 30.05 1018 10 16 N/A
7:53 pm 19:53 Sunny 75 23.9 45 7.2 34 34 NE 8 13 30.06 1018 10 16 N/A
8:53 pm 20:53 Sunny 70 21.1 46 7.8 42 42 E 5 7 30.06 1018 10 16 N/A
9:53 pm 21:53 Clear 65 18.3 49 9.4 56 56 E 7 11 30.08 1019 10 16 N/A
10:53 pm 22:53 Clear 64 17.8 48 8.9 56 56 E 6 9 30.08 1019 10 16 N/A
11:53 pm 23:53 Mostly Clear 63 17.2 47 8.3 56 56 ENE 6 9 30.07 1018 10 16 N/A

Powered by AerisWeather